Météo par heure à Alipur

Ce jour, 13 Mai, Jeudi

Heure Température Précipitation Vent Pression Humidité
00:00 +30°C° 0 mm 2 m/s 733 mmHg 46%
01:00 +30°C° 0 mm 2 m/s 732 mmHg 46%
02:00 +30°C° 0 mm 2 m/s 732 mmHg 47%
03:00 +29°C° 0.1 mm 3 m/s 733 mmHg 48%
04:00 +29°C° 0.1 mm 4 m/s 733 mmHg 50%
05:00 +28°C° 0.1 mm 5 m/s 733 mmHg 51%
06:00 +29°C° 0.2 mm 5 m/s 734 mmHg 49%
07:00 +30°C° 0.2 mm 5 m/s 734 mmHg 47%
08:00 +32°C° 0.2 mm 5 m/s 735 mmHg 45%
09:00 +33°C° 0 mm 4 m/s 735 mmHg 40%
10:00 +35°C° 0 mm 4 m/s 735 mmHg 35%
11:00 +37°C° 0 mm 3 m/s 734 mmHg 31%
12:00 +38°C° 0 mm 3 m/s 734 mmHg 28%
13:00 +39°C° 0 mm 2 m/s 733 mmHg 25%
14:00 +40°C° 0 mm 2 m/s 732 mmHg 22%
15:00 +38°C° 0.1 mm 4 m/s 732 mmHg 28%
16:00 +36°C° 0.1 mm 5 m/s 732 mmHg 34%
17:00 +34°C° 0.1 mm 7 m/s 732 mmHg 39%
18:00 +33°C° 0.7 mm 7 m/s 732 mmHg 42%
19:00 +32°C° 0.7 mm 6 m/s 733 mmHg 45%
20:00 +30°C° 0.7 mm 6 m/s 734 mmHg 48%
21:00 +30°C° 0.1 mm 5 m/s 734 mmHg 47%
22:00 +29°C° 0.1 mm 5 m/s 733 mmHg 46%
23:00 +29°C° 0.1 mm 5 m/s 732 mmHg 45%

Demain, 14 Mai, Vendredi

Heure Température Précipitation Vent Pression Humidité
00:00 +29°C° 0 mm 4 m/s 732 mmHg 48%
01:00 +28°C° 0 mm 4 m/s 732 mmHg 50%
02:00 +28°C° 0 mm 3 m/s 733 mmHg 52%
03:00 +27°C° 0 mm 3 m/s 733 mmHg 54%
04:00 +27°C° 0 mm 3 m/s 733 mmHg 55%
05:00 +26°C° 0 mm 3 m/s 734 mmHg 56%
06:00 +27°C° 0.2 mm 3 m/s 734 mmHg 52%
07:00 +28°C° 0.2 mm 4 m/s 735 mmHg 48%
08:00 +29°C° 0.2 mm 4 m/s 735 mmHg 45%
09:00 +32°C° 0.1 mm 4 m/s 735 mmHg 40%
10:00 +35°C° 0.1 mm 4 m/s 735 mmHg 34%
11:00 +37°C° 0.1 mm 3 m/s 735 mmHg 29%
12:00 +38°C° 0 mm 3 m/s 734 mmHg 27%
13:00 +39°C° 0 mm 2 m/s 733 mmHg 25%
14:00 +40°C° 0 mm 2 m/s 733 mmHg 23%
15:00 +40°C° 0 mm 2 m/s 732 mmHg 22%
16:00 +40°C° 0 mm 2 m/s 732 mmHg 22%
17:00 +40°C° 0 mm 2 m/s 732 mmHg 21%
18:00 +38°C° 0 mm 3 m/s 732 mmHg 24%
19:00 +36°C° 0 mm 4 m/s 732 mmHg 28%
20:00 +35°C° 0 mm 5 m/s 733 mmHg 31%
21:00 +35°C° 0 mm 3 m/s 733 mmHg 30%
22:00 +35°C° 0 mm 2 m/s 732 mmHg 29%
23:00 +34°C° 0 mm 1 m/s 732 mmHg 28%

Après-demain, 15 Mai, Samedi

Heure Température Précipitation Vent Pression Humidité
00:00 +33°C° 0 mm 1 m/s 732 mmHg 30%
01:00 +34°C° 0 mm 2 m/s 732 mmHg 32%
02:00 +32°C° 0 mm 2 m/s 732 mmHg 34%
03:00 +32°C° 0 mm 2 m/s 733 mmHg 34%
04:00 +32°C° 0 mm 2 m/s 733 mmHg 34%
05:00 +32°C° 0 mm 2 m/s 733 mmHg 34%
06:00 +34°C° 0 mm 2 m/s 734 mmHg 31%
07:00 +35°C° 0 mm 2 m/s 734 mmHg 28%
08:00 +37°C° 0 mm 2 m/s 735 mmHg 26%
09:00 +38°C° 0 mm 2 m/s 735 mmHg 23%
10:00 +40°C° 0 mm 1 m/s 734 mmHg 20%
11:00 +39°C° 0 mm 0 m/s 734 mmHg 17%
12:00 +42°C° 0 mm 1 m/s 734 mmHg 17%
13:00 +43°C° 0 mm 2 m/s 733 mmHg 16%
14:00 +43°C° 0 mm 2 m/s 733 mmHg 15%
15:00 +43°C° 0 mm 3 m/s 733 mmHg 17%
16:00 +42°C° 0 mm 5 m/s 732 mmHg 18%
17:00 +41°C° 0 mm 6 m/s 732 mmHg 20%
18:00 +40°C° 0 mm 5 m/s 732 mmHg 20%
19:00 +40°C° 0 mm 4 m/s 733 mmHg 20%
20:00 +38°C° 0 mm 3 m/s 733 mmHg 21%
21:00 +38°C° 0 mm 3 m/s 733 mmHg 21%
22:00 +37°C° 0 mm 2 m/s 733 mmHg 22%
23:00 +37°C° 0 mm 2 m/s 733 mmHg 23%

16 Mai, Dimanche

Heure Température Précipitation Vent Pression Humidité
00:00 +36°C° 0 mm 2 m/s 733 mmHg 24%
01:00 +36°C° 0 mm 2 m/s 733 mmHg 26%
02:00 +35°C° 0 mm 2 m/s 733 mmHg 27%
03:00 +34°C° 0 mm 2 m/s 733 mmHg 27%
04:00 +34°C° 0 mm 2 m/s 734 mmHg 27%
05:00 +32°C° 0 mm 2 m/s 734 mmHg 28%
06:00 +35°C° 0 mm 2 m/s 734 mmHg 25%
07:00 +36°C° 0 mm 2 m/s 735 mmHg 21%
08:00 +38°C° 0 mm 2 m/s 735 mmHg 18%
09:00 +40°C° 0 mm 2 m/s 735 mmHg 16%
10:00 +42°C° 0 mm 2 m/s 735 mmHg 13%
11:00 +43°C° 0 mm 2 m/s 735 mmHg 11%
12:00 +45°C° 0 mm 2 m/s 734 mmHg 11%
13:00 +46°C° 0 mm 2 m/s 734 mmHg 11%
14:00 +46°C° 0 mm 2 m/s 733 mmHg 10%
15:00 +46°C° 0 mm 2 m/s 733 mmHg 10%
16:00 +46°C° 0 mm 2 m/s 732 mmHg 10%
17:00 +46°C° 0 mm 2 m/s 732 mmHg 10%
18:00 +45°C° 0 mm 2 m/s 732 mmHg 11%
19:00 +43°C° 0 mm 1 m/s 733 mmHg 12%
20:00 +42°C° 0 mm 1 m/s 733 mmHg 13%
21:00 +41°C° 0 mm 2 m/s 733 mmHg 14%
22:00 +40°C° 0 mm 2 m/s 733 mmHg 15%
23:00 +39°C° 0 mm 3 m/s 733 mmHg 16%

17 Mai, Lundi

Heure Température Précipitation Vent Pression Humidité
00:00 +38°C° 0 mm 3 m/s 733 mmHg 17%
01:00 +38°C° 0 mm 3 m/s 733 mmHg 17%
02:00 +37°C° 0 mm 3 m/s 733 mmHg 18%
03:00 +37°C° 0 mm 2 m/s 733 mmHg 18%
04:00 +37°C° 0 mm 2 m/s 733 mmHg 19%
05:00 +37°C° 0 mm 2 m/s 733 mmHg 19%
06:00 +38°C° 0 mm 2 m/s 734 mmHg 18%
07:00 +39°C° 0 mm 2 m/s 734 mmHg 16%
08:00 +40°C° 0 mm 2 m/s 735 mmHg 15%
09:00 +41°C° 0 mm 2 m/s 735 mmHg 14%
10:00 +42°C° 0 mm 2 m/s 735 mmHg 13%
11:00 +45°C° 0 mm 2 m/s 734 mmHg 12%
12:00 +45°C° 0 mm 3 m/s 734 mmHg 12%
13:00 +45°C° 0 mm 4 m/s 734 mmHg 12%
14:00 +47°C° 0 mm 5 m/s 733 mmHg 12%
15:00 +46°C° 0 mm 6 m/s 733 mmHg 13%
16:00 +45°C° 0 mm 6 m/s 733 mmHg 14%
17:00 +44°C° 0 mm 7 m/s 733 mmHg 16%
18:00 +43°C° 0 mm 7 m/s 733 mmHg 18%
19:00 +41°C° 0 mm 7 m/s 734 mmHg 20%
20:00 +40°C° 0 mm 7 m/s 734 mmHg 22%
21:00 +40°C° 0 mm 6 m/s 734 mmHg 22%
22:00 +40°C° 0 mm 5 m/s 734 mmHg 21%
23:00 +40°C° 0 mm 4 m/s 734 mmHg 21%

18 Mai, Mardi

Heure Température Précipitation Vent Pression Humidité
00:00 +39°C° 0 mm 3 m/s 734 mmHg 21%
01:00 +39°C° 0 mm 2 m/s 733 mmHg 20%
02:00 +39°C° 0 mm 1 m/s 733 mmHg 20%
03:00 +38°C° 0 mm 2 m/s 733 mmHg 22%
04:00 +37°C° 0 mm 2 m/s 733 mmHg 24%
05:00 +37°C° 0 mm 3 m/s 733 mmHg 26%
06:00 +37°C° 0 mm 3 m/s 734 mmHg 26%
07:00 +37°C° 0 mm 3 m/s 735 mmHg 26%
08:00 +38°C° 0 mm 2 m/s 735 mmHg 25%
09:00 +38°C° 0 mm 3 m/s 735 mmHg 26%
10:00 +37°C° 0 mm 3 m/s 735 mmHg 27%
11:00 +37°C° 0 mm 4 m/s 735 mmHg 28%
12:00 +37°C° 0 mm 4 m/s 735 mmHg 30%
13:00 +36°C° 0 mm 4 m/s 735 mmHg 31%
14:00 +35°C° 0 mm 4 m/s 735 mmHg 33%
15:00 +35°C° 0 mm 3 m/s 735 mmHg 32%
16:00 +35°C° 0 mm 3 m/s 734 mmHg 31%
17:00 +35°C° 0 mm 2 m/s 734 mmHg 30%
18:00 +35°C° 0 mm 2 m/s 734 mmHg 30%
19:00 +35°C° 0 mm 2 m/s 734 mmHg 31%
20:00 +35°C° 0 mm 2 m/s 735 mmHg 32%
21:00 +35°C° 0 mm 2 m/s 735 mmHg 32%
22:00 +33°C° 0 mm 1 m/s 735 mmHg 33%
23:00 +33°C° 0 mm 1 m/s 735 mmHg 34%
Voir plus

Nous avons besoin de votre consentement

Meteoprog et ses fournisseurs de services peuvent stocker et accéder à des données personnelles telles que des cookies, des identifiants d'appareils ou d'autres technologies similaires sur votre appareil et traiter ces données pour personnaliser le contenu et les publicités, ainsi que pour fournir des fonctionnalités de médias sociaux et analyser le trafic.

  • Stocker et/ou accéder à des informations sur votre appareil

    Des cookies, des identifiants d'appareils ou d'autres informations peuvent être stockés ou accessibles sur votre appareil aux fins indiquées ci-dessus.

  • Annonces et contenus personnalisés, mesure des annonces et des contenus, connaissance de l'audience et développement de produits

    Les annonces et le contenu peuvent être personnalisés en fonction d'un profil. D'autres données peuvent être ajoutées pour mieux personnaliser les annonces et le contenu. Les performances des publicités et du contenu peuvent être mesurées. Il est possible d'obtenir des informations sur le public qui a vu les publicités et le contenu. Ces données peuvent être utilisées pour développer ou améliorer l'expérience de l'utilisateur, les systèmes et les logiciels.

En cliquant sur "J'accepte", vous autorisez l'utilisation de cookies, des identifiants d'appareils, des balises web ou d'autres technologies similaires. Vos paramètres peuvent être modifiés dans le navigateur de votre appareil.

Dans certains cas, des intérêts légitimes peuvent être invoqués plutôt qu'un consentement. Vous pouvez en savoir plus à ce sujet dans notre Politique de confidentialité et de cookies.